Weather History for KRRT - November, 2011

Change the Weather History Date:

Monday, November 28, 2011

  Actual Average Record
Temperature  
Mean Temperature 34 °F -  
Max Temperature 42 °F 24 °F 48 °F (1949)
Min Temperature 26 °F 6 °F -29 °F (1985)
Degree Days  
Heating Degree Days 31    
Moisture  
Dew Point 21 °F    
Average Humidity 59    
Maximum Humidity 80    
Minimum Humidity 36    
Precipitation  
Precipitation 0.00 in - - ()
Sea Level Pressure  
Sea Level Pressure 29.92 in    
Wind  
Wind Speed 12 mph (WSW)    
Max Wind Speed 23 mph    
Max Gust Speed 31 mph    
Visibility 10 miles    
Events      
Averages and records for this station are not official NWS values.
T = Trace of Precipitation, MM = Missing Value Source: NWS Daily Summary

Daily Weather History Graph

Daily Weather History Graph

Search for Another Location

Airport or City:

Trip Planner

Search our weather history database for the weather conditions in past years. The results will help you decide how hot, cold, wet, or windy it might be!

Date:

Astronomy

Nov. 28, 2011 Rise Set
Actual Time 7:49 AM CST 4:28 PM CST
Civil Twilight 7:13 AM CST 5:04 PM CST
Nautical Twilight 6:33 AM CST 5:44 PM CST
Astronomical Twilight 5:56 AM CST 6:22 PM CST
Moon 10:57 AM CST (11/28) 8:21 PM CST (11/28)
Length of Visible Light 9h 51m
Length of Day
8h 39m
Waxing Crescent, 16% of the Moon is Illuminated
Nov 28
Waxing Crescent
Dec 2
First Quarter
Dec 10
Full
Dec 17
Last Quarter
Dec 24
New

Hourly Weather History & Observations

Time (CST) Temp. Windchill Dew Point Humidity Pressure Visibility Wind Dir Wind Speed Gust Speed Precip Events Conditions
12:14 AM 26.6 °F 16.2 °F 21.2 °F 80% 29.92 in 10.0 mi South 11.5 mph 18.4 mph N/A   Clear
12:34 AM 26.6 °F 16.2 °F 21.2 °F 80% 29.90 in 10.0 mi South 11.5 mph 20.7 mph N/A   Clear
12:54 AM 26.6 °F 16.2 °F 19.4 °F 74% 29.89 in 10.0 mi South 11.5 mph 19.6 mph N/A   Clear
1:14 AM 26.6 °F 16.2 °F 19.4 °F 74% 29.89 in 10.0 mi South 11.5 mph 17.3 mph N/A   Clear
1:33 AM 26.6 °F 15.7 °F 19.4 °F 74% 29.86 in 10.0 mi South 12.7 mph 18.4 mph N/A   Clear
1:54 AM 26.6 °F 17.5 °F 19.4 °F 74% 29.86 in 10.0 mi South 9.2 mph 19.6 mph N/A   Clear
2:14 AM 28.4 °F 20.4 °F 19.4 °F 69% 29.85 in 10.0 mi South 8.1 mph 17.3 mph N/A   Clear
2:34 AM 28.4 °F 19.7 °F 19.4 °F 69% 29.82 in 10.0 mi South 9.2 mph 17.3 mph N/A   Clear
2:54 AM 28.4 °F 19.7 °F 19.4 °F 69% 29.82 in 10.0 mi South 9.2 mph - N/A   Clear
3:14 AM 30.2 °F 20.2 °F 19.4 °F 64% 29.80 in 10.0 mi South 12.7 mph 20.7 mph N/A   Clear
3:34 AM 30.2 °F 20.2 °F 17.6 °F 60% 29.79 in 10.0 mi South 12.7 mph 19.6 mph N/A   Clear
3:54 AM 30.2 °F 19.8 °F 17.6 °F 60% 29.78 in 10.0 mi South 13.8 mph 20.7 mph N/A   Clear
4:14 AM 30.2 °F 21.3 °F 17.6 °F 60% 29.76 in 10.0 mi South 10.4 mph 18.4 mph N/A   Clear
4:34 AM 32.0 °F 23.0 °F 17.6 °F 55% 29.77 in 10.0 mi SSW 11.5 mph 19.6 mph N/A   Clear
4:54 AM 33.8 °F 24.8 °F 17.6 °F 52% 29.75 in 10.0 mi South 12.7 mph 24.2 mph N/A   Clear
5:14 AM 33.8 °F 23.9 °F 17.6 °F 52% 29.74 in 10.0 mi South 15.0 mph 24.2 mph N/A   Clear
5:34 AM 33.8 °F 24.8 °F 17.6 °F 52% 29.74 in 10.0 mi SSW 12.7 mph 21.9 mph N/A   Clear
5:54 AM 33.8 °F 23.5 °F 17.6 °F 52% 29.73 in 10.0 mi SSW 16.1 mph 24.2 mph N/A   Clear
6:33 AM 33.8 °F 23.9 °F 17.6 °F 52% 29.74 in 10.0 mi SSW 15.0 mph 23.0 mph N/A   Clear
6:54 AM 33.8 °F 23.9 °F 17.6 °F 52% 29.75 in 10.0 mi SSW 15.0 mph 23.0 mph N/A   Clear
7:14 AM 33.8 °F 24.3 °F 17.6 °F 52% 29.74 in 10.0 mi SSW 13.8 mph 27.6 mph N/A   Clear
7:54 AM 33.8 °F 23.9 °F 17.6 °F 52% 29.71 in 10.0 mi SSW 15.0 mph 25.3 mph N/A   Clear
8:14 AM 33.8 °F 23.5 °F 17.6 °F 52% 29.72 in 10.0 mi SSW 16.1 mph 23.0 mph N/A   Clear
8:34 AM 33.8 °F 23.2 °F 19.4 °F 56% 29.74 in 10.0 mi SSW 17.3 mph 25.3 mph N/A   Clear
8:54 AM 33.8 °F 23.5 °F 19.4 °F 56% 29.76 in 10.0 mi SW 16.1 mph 23.0 mph N/A   Clear
9:14 AM 33.8 °F 24.3 °F 19.4 °F 56% 29.77 in 10.0 mi SW 13.8 mph 20.7 mph N/A   Clear
9:34 AM 33.8 °F 24.3 °F 19.4 °F 56% 29.77 in 10.0 mi SW 13.8 mph 20.7 mph N/A   Clear
9:54 AM 35.6 °F 28.0 °F 21.2 °F 56% 29.80 in 10.0 mi SW 10.4 mph - N/A   Clear
10:14 AM 35.6 °F 28.0 °F 21.2 °F 56% 29.82 in 10.0 mi WSW 10.4 mph - N/A   Clear
10:34 AM 35.6 °F 27.5 °F 23.0 °F 60% 29.83 in 10.0 mi WSW 11.5 mph 19.6 mph N/A   Clear
11:13 AM 35.6 °F 28.0 °F 24.8 °F 65% 29.86 in 10.0 mi West 10.4 mph 17.3 mph N/A   Clear
11:34 AM 37.4 °F 30.3 °F 26.6 °F 65% 29.88 in 10.0 mi West 10.4 mph - N/A   Scattered Clouds
11:54 AM 39.2 °F 33.0 °F 28.4 °F 65% 29.89 in 10.0 mi WNW 9.2 mph 17.3 mph N/A   Mostly Cloudy
12:14 PM 42.8 °F 35.1 °F 30.2 °F 61% 29.91 in 10.0 mi NW 16.1 mph 25.3 mph N/A   Mostly Cloudy
1:14 PM 42.8 °F 34.0 °F 32.0 °F 66% 29.96 in 10.0 mi NW 20.7 mph 26.5 mph N/A   Clear
1:34 PM 42.8 °F 34.5 °F 30.2 °F 61% 29.97 in 10.0 mi WNW 18.4 mph 31.1 mph N/A   Clear
1:54 PM 42.8 °F 34.8 °F 30.2 °F 61% 29.98 in 10.0 mi NW 17.3 mph 27.6 mph N/A   Clear
2:15 PM 42.8 °F 34.5 °F 28.4 °F 57% 29.99 in 10.0 mi NW 18.4 mph 24.2 mph N/A   Clear
2:34 PM 42.8 °F 33.5 °F 28.4 °F 57% 30.01 in 10.0 mi NW 23.0 mph 26.5 mph N/A   Clear
2:53 PM 42.8 °F 35.1 °F 28.4 °F 57% 30.02 in 10.0 mi NW 16.1 mph 24.2 mph N/A   Clear
3:14 PM 42.8 °F 34.5 °F 26.6 °F 53% 30.04 in 10.0 mi NW 18.4 mph 26.5 mph N/A   Clear
3:34 PM 42.8 °F 35.1 °F 24.8 °F 49% 30.06 in 10.0 mi WNW 16.1 mph 25.3 mph N/A   Clear
3:54 PM 41.0 °F 32.8 °F 23.0 °F 49% 30.08 in 10.0 mi NW 16.1 mph 23.0 mph N/A   Clear
4:14 PM 39.2 °F 32.0 °F 24.8 °F 56% 30.10 in 10.0 mi NW 11.5 mph 19.6 mph N/A   Clear
4:34 PM 37.4 °F 28.2 °F 15.8 °F 41% 30.11 in 10.0 mi NW 16.1 mph 24.2 mph N/A   Clear
4:54 PM 37.4 °F 28.5 °F 12.2 °F 36% 30.13 in 10.0 mi WNW 15.0 mph 20.7 mph N/A   Clear
5:14 PM 33.8 °F 26.4 °F 12.2 °F 41% 30.14 in 10.0 mi NW 9.2 mph - N/A   Clear
5:34 PM 33.8 °F 27.7 °F 12.2 °F 41% 30.15 in 10.0 mi WNW 6.9 mph - N/A   Clear
5:53 PM 33.8 °F 27.0 °F 15.8 °F 48% 30.17 in 10.0 mi West 8.1 mph - N/A   Clear
6:14 PM 32.0 °F 27.5 °F 17.6 °F 55% 30.18 in 10.0 mi West 4.6 mph - N/A   Clear
6:34 PM 33.8 °F 26.4 °F 19.4 °F 56% 30.19 in 10.0 mi West 9.2 mph - N/A   Clear
6:53 PM 32.0 °F 24.2 °F 19.4 °F 60% 30.20 in 10.0 mi WNW 9.2 mph - N/A   Clear
7:14 PM 30.2 °F 21.3 °F 19.4 °F 64% 30.21 in 10.0 mi West 10.4 mph - N/A   Clear
7:33 PM 30.2 °F 22.6 °F 19.4 °F 64% 30.22 in 10.0 mi West 8.1 mph - N/A   Clear
8:14 PM 30.2 °F 21.9 °F 17.6 °F 60% 30.24 in 10.0 mi West 9.2 mph - N/A   Clear
8:33 PM 28.4 °F 21.2 °F 17.6 °F 64% 30.25 in 10.0 mi WNW 6.9 mph - N/A   Clear
8:54 PM 28.4 °F 22.2 °F 15.8 °F 59% 30.25 in 10.0 mi WNW 5.8 mph - N/A   Clear
9:14 PM 28.4 °F 22.2 °F 15.8 °F 59% 30.26 in 10.0 mi WNW 5.8 mph - N/A   Clear
9:33 PM 28.4 °F 22.2 °F 15.8 °F 59% 30.27 in 10.0 mi West 5.8 mph - N/A   Clear
9:54 PM 26.6 °F 20.0 °F 15.8 °F 64% 30.27 in 10.0 mi West 5.8 mph - N/A   Clear
10:14 PM 26.6 °F 22.6 °F 15.8 °F 64% 30.28 in 10.0 mi West 3.5 mph - N/A   Clear
10:33 PM 24.8 °F 17.9 °F 14.0 °F 64% 30.28 in 10.0 mi West 5.8 mph - N/A   Clear
11:14 PM 24.8 °F 16.1 °F 14.0 °F 64% 30.30 in 10.0 mi WNW 8.1 mph - N/A   Clear
11:34 PM 24.8 °F 16.1 °F 14.0 °F 64% 30.31 in 10.0 mi WNW 8.1 mph - N/A   Clear
11:54 PM 24.8 °F 16.9 °F 14.0 °F 64% 30.31 in 10.0 mi West 6.9 mph - N/A   Clear